[[{"header":{"parameterUnit":"m.s-1","parameterCategory":1,"la1":30.2991,"la2":30.254,"lo1":-89.0895,"lo2":-89.0444,"dy":0.0017,"dx":0.0017,"nx":28,"ny":28,"refTime":"2024-02-08T09:00:00:Z","depth":0,"parameterNumber":2,"parameterNumberName":"U-component_of_WINDS"},"data":[0,0,0,0,0,0,0,0,0,0,0,0,0,0,0,0,0,0,0,0,0,0,0,0,0,0,0,0,0,0,0,0,0,0,0,0,0,0,0,0,0,0,0,0,0,0,0,0,0,0,0,0,0,0,0,0,0,0,-4.3412,-4.3412,0,-4.3441,-4.3442,-4.3442,-4.3353,-4.3351,-4.3348,-4.3346,-4.3374,-4.3378,-4.3381,0,0,0,0,0,0,0,0,0,0,0,0,0,-4.328,-4.3282,-4.3412,-4.3412,-4.3413,-4.3441,-4.3442,-4.3442,-4.3354,-4.3351,-4.3347,-4.3344,-4.3373,-4.3377,-4.3381,0,0,0,0,0,0,0,0,0,0,0,0,0,-4.3326,-4.3283,-4.3412,-4.3372,-4.3369,-4.3441,-4.3442,-4.3442,-4.3355,-4.3351,-4.3347,-4.3343,-4.3372,-4.3377,-4.3382,-4.3493,0,0,-4.3397,-4.3399,0,0,0,0,0,0,0,0,-4.3323,-4.3331,-4.3378,-4.3375,-4.3372,-4.339,-4.3405,-4.3459,-4.3356,-4.336,-4.3345,-4.3341,-4.3383,-4.3386,-4.3401,-4.3495,-4.3496,-4.3397,-4.34,-4.3402,-4.3404,0,0,0,0,0,0,0,-4.332,-4.3329,-4.3423,-4.3378,-4.3375,-4.3353,-4.3355,-4.3415,-4.3394,-4.3359,-4.3353,-4.3358,-4.338,-4.3396,-4.3401,-4.3496,-4.3397,-4.3401,-4.3404,-4.3406,-4.3683,-4.3687,0,0,0,0,0,0,-4.3322,-4.3327,-4.3422,-4.3424,-4.3337,-4.3359,-4.3361,-4.3388,-4.3393,-4.339,-4.3361,-4.3354,-4.339,-4.3395,-4.3402,-4.3531,-4.3402,-4.3407,-4.341,-4.3679,-4.3684,-4.3689,0,0,0,0,0,0,-4.332,-4.3332,-4.3421,-4.3374,-4.3384,-4.3365,-4.3396,-4.3391,-4.3406,-4.3394,-4.339,-4.3382,-4.3387,-4.3395,-4.3471,-4.3531,-4.3409,-4.3414,-4.3674,-4.368,-4.3686,-4.3793,0,0,0,0,0,0,-4.3316,-4.3331,-4.3373,-4.3376,-4.3387,-4.3491,-4.34,-4.3394,-4.3415,-4.3406,-4.3412,-4.3409,-4.3384,-4.3464,-4.3476,-4.3536,-4.3417,-4.3668,-4.3677,-4.3684,-4.3784,-4.3802,-4.3818,0,0,0,0,0,-4.3312,-4.3402,-4.3376,-4.3388,-4.3439,-4.3494,-4.35,-4.347,-4.3421,-4.3462,-4.3455,-4.3409,-4.3524,-4.3473,-4.3485,-4.3548,-4.3664,-4.3674,-4.3684,-4.3776,-4.3799,-4.3818,0,0,0,0,0,0,-4.3405,-4.3401,-4.3372,-4.3465,-4.3481,-4.3479,-4.3531,-4.3495,-4.3524,-4.3514,-4.3475,-4.3477,-4.3561,-4.3562,-4.3506,-4.3656,-4.3585,-4.3598,-4.3651,-4.3673,-4.369,-4.3686,-4.3422,0,0,0,0,0,-4.3437,-4.3483,-4.3477,-4.356,-4.3569,-4.3549,-4.3572,-4.3548,-4.3562,-4.3568,-4.3566,-4.3581,-4.3621,-4.3647,-4.3683,-4.3785,-4.3785,-4.3834,-4.3851,-4.3866,-4.3876,-4.393,-4.3952,-4.3721,-4.3721,-4.3721,0,0,-4.3503,-4.3506,-4.3537,-4.3579,-4.3588,-4.3636,-4.3555,-4.3609,-4.3644,-4.3576,-4.3647,-4.3648,-4.3662,-4.3752,-4.3792,-4.3756,-4.394,-4.3878,-4.389,-4.3892,-4.3942,-4.3964,-4.3984,-4.3728,-4.3727,-4.3726,0,0,-4.3646,-4.3654,-4.3723,-4.3735,-4.375,-4.3737,-4.3754,-4.3758,-4.3755,-4.3827,-4.3777,-4.3819,-4.3888,-4.39,-4.3916,-4.4067,-4.4026,-4.408,-4.4168,-4.4222,-4.424,-4.4255,-4.4308,-4.4328,-4.4092,-4.4092,-4.4092,0,-4.3724,-4.3795,-4.3763,-4.3821,-4.3841,-4.3784,-4.3854,-4.3866,-4.3893,-4.3907,-4.3868,-4.3953,-4.3959,-4.4051,-4.4088,-4.4104,-4.4121,-4.4078,-4.424,-4.4255,-4.427,-4.4319,-4.4339,-4.4098,-4.4098,-4.4097,-4.4096,0,-4.3891,-4.3941,-4.3995,-4.4023,-4.4049,-4.4113,-4.4091,-4.4122,-4.4097,-4.4088,-4.4162,-4.4168,-4.4203,-4.4224,-4.42,-4.4313,-4.429,-4.4246,-4.4174,-4.4298,-4.4344,-4.4363,-4.4107,-4.4105,-4.4103,-4.4102,0,0,-4.4089,-4.4101,-4.4122,-4.4133,-4.4148,-4.4186,-4.4248,-4.4284,-4.431,-4.4332,-4.4381,-4.4443,-4.4402,-4.442,-4.4397,-4.4444,-4.4562,-4.4394,-4.4393,-4.4423,-4.4687,-4.4718,-4.474,-4.4537,-4.454,-4.4543,-4.4685,0,-4.4229,-4.4335,-4.431,-4.4414,-4.446,-4.4408,-4.4462,-4.4476,-4.4471,-4.4509,-4.4502,-4.4545,-4.4489,-4.45,-4.4544,-4.4538,-4.4614,-4.4528,-4.4582,-4.4584,-4.4576,-4.4765,-4.4798,-4.4931,-4.4703,-4.4706,-4.4708,0,-4.4404,-4.4433,-4.4543,-4.4551,-4.4569,-4.4618,-4.4649,-4.4687,-4.4703,-4.4695,-4.4717,-4.4685,-4.4746,-4.4677,-4.476,-4.4702,-4.4723,-4.4724,-4.4729,-4.473,-4.4651,-4.4769,-4.4973,-4.4992,-4.4736,-4.4734,-4.4732,0,-4.4536,-4.4603,-4.4677,-4.4689,-4.4701,-4.4736,-4.4743,-4.4755,-4.4779,-4.4807,-4.4822,-4.4857,-4.4875,-4.4903,-4.4882,-4.4833,-4.4969,-4.4897,-4.4963,-4.4964,-4.4991,-4.4989,-4.5199,-4.501,-4.501,-4.5009,-4.5009,0,-4.4693,-4.4761,-4.4736,-4.4781,-4.4857,-4.4829,-4.4904,-4.4905,-4.4917,-4.4961,-4.4919,-4.4962,-4.4932,-4.4973,-4.4957,-4.5028,-4.5037,-4.5032,-4.5027,-4.5035,-4.5035,-4.5045,-4.5034,-4.5015,-4.5013,-4.5012,-4.5011,0,-4.4851,-4.4837,-4.4914,-4.492,-4.4923,-4.4978,-4.4983,-4.5025,-4.5018,-4.5075,-4.5086,-4.5075,-4.512,-4.5103,-4.5151,-4.514,-4.5231,-4.5214,-4.5225,-4.522,-4.5286,-4.528,-4.5508,-4.5536,-4.5331,-4.5333,-4.5335,0,-4.495,-4.5001,-4.5014,-4.5041,-4.5051,-4.5095,-4.5119,-4.5094,-4.5121,-4.5145,-4.5185,-4.5227,-4.5258,-4.5334,-4.5329,-4.5366,-4.5349,-4.5427,-4.5354,-4.536,-4.5347,-4.5344,-4.5348,-4.544,-4.5442,-4.5444,-4.5446,0,-4.5127,-4.5118,-4.5155,-4.5191,-4.5221,-4.5248,-4.527,-4.5295,-4.5272,-4.5304,-4.5351,-4.5376,-4.5426,-4.5468,-4.5502,-4.5508,-4.5473,-4.547,-4.5486,-4.5493,-4.5496,-4.5494,-4.5262,-4.5463,-4.5462,-4.546,-4.5459,-4.5459,-4.5257,-4.53,-4.5316,-4.5359,-4.5374,-4.5397,-4.5437,-4.5435,-4.5474,-4.5513,-4.5496,-4.555,-4.5566,-4.5608,-4.562,-4.5661,-4.5631,-4.5656,-4.5661,-4.5667,-4.5675,-4.5493,-4.5668,-4.5667,-4.5667,-4.5666,-4.5666,0,-4.5429,-4.5438,-4.5478,-4.5512,-4.5546,-4.5512,-4.5537,-4.5567,-4.5615,-4.5633,-4.5667,-4.572,-4.5762,-4.5762,-4.58,-4.5834,-4.5819,-4.5844,-4.584,-4.5842,-4.5701,-4.5681,-4.5856,-4.5856,-4.5856,-4.5856,-4.5856,-4.5856,-4.5523,-4.5595,-4.5589,-4.5668,-4.5675,-4.5728,-4.5745,-4.5766,-4.578,-4.5843,-4.5877,-4.5878,-4.5889,-4.5928,-4.5965,-4.5964,-4.5979,-4.6011,-4.6003,-4.5871,-4.5852,-4.5834,-4.5815,-4.6015,-4.6015,-4.6141,-4.6142,-4.6143]},{"header":{"parameterUnit":"m.s-1","parameterCategory":1,"la1":30.2991,"la2":30.254,"lo1":-89.0895,"lo2":-89.0444,"dy":0.0017,"dx":0.0017,"nx":28,"ny":28,"refTime":"2024-02-08T09:00:00:Z","depth":0,"parameterNumber":3,"parameterNumberName":"V-component_of_WINDS"},"data":[0,0,0,0,0,0,0,0,0,0,0,0,0,0,0,0,0,0,0,0,0,0,0,0,0,0,0,0,0,0,0,0,0,0,0,0,0,0,0,0,0,0,0,0,0,0,0,0,0,0,0,0,0,0,0,0,0,0,2.4747,2.4745,0,2.4591,2.459,2.4588,2.4417,2.4414,2.4412,2.4409,2.4248,2.4246,2.4244,0,0,0,0,0,0,0,0,0,0,0,0,0,2.4898,2.4896,2.4747,2.4745,2.4743,2.4592,2.459,2.4587,2.4417,2.4414,2.4411,2.4408,2.4249,2.4246,2.4244,0,0,0,0,0,0,0,0,0,0,0,0,0,2.4796,2.4895,2.4748,2.464,2.4629,2.4592,2.459,2.4587,2.4418,2.4414,2.441,2.4407,2.425,2.4247,2.4244,2.43,0,0,2.4235,2.4233,0,0,0,0,0,0,0,0,2.4802,2.4791,2.4658,2.4647,2.4635,2.452,2.4583,2.4491,2.4419,2.4498,2.4409,2.4405,2.4341,2.4331,2.4309,2.4292,2.4285,2.4234,2.4233,2.4231,2.4231,0,0,0,0,0,0,0,2.481,2.4797,2.4685,2.4656,2.4642,2.46,2.4581,2.4565,2.4442,2.4491,2.4478,2.4462,2.4334,2.4313,2.4304,2.4283,2.4235,2.4232,2.423,2.4229,2.4308,2.4311,0,0,0,0,0,0,2.4833,2.4804,2.469,2.4681,2.4711,2.46,2.4579,2.456,2.4442,2.442,2.4465,2.4454,2.432,2.4308,2.4298,2.4358,2.4231,2.4229,2.4227,2.4304,2.4308,2.4313,0,0,0,0,0,0,2.4837,2.4824,2.4697,2.4739,2.4719,2.4602,2.4582,2.4559,2.4537,2.4423,2.44,2.4466,2.4316,2.4302,2.4302,2.435,2.4227,2.4225,2.4299,2.4305,2.4311,2.4477,0,0,0,0,0,0,2.4842,2.4827,2.4846,2.4741,2.4718,2.4703,2.4584,2.4559,2.4533,2.4517,2.4417,2.4397,2.4312,2.4307,2.4299,2.4343,2.4222,2.4294,2.4302,2.4309,2.4467,2.4488,2.4506,0,0,0,0,0,2.4848,2.4898,2.4848,2.4835,2.474,2.4706,2.4693,2.4595,2.4538,2.4557,2.4484,2.44,2.4347,2.4308,2.4297,2.4342,2.4291,2.43,2.4308,2.4458,2.4484,2.4505,0,0,0,0,0,0,2.501,2.4882,2.4825,2.4843,2.4787,2.4677,2.4697,2.4625,2.4583,2.457,2.445,2.4429,2.4443,2.4392,2.4352,2.4392,2.4307,2.4314,2.4424,2.4448,2.4467,2.4479,2.422,0,0,0,0,0,2.5049,2.5032,2.4921,2.4947,2.4922,2.4816,2.4797,2.4727,2.4664,2.4639,2.4565,2.4507,2.4477,2.446,2.4425,2.4459,2.4436,2.4485,2.4505,2.4521,2.4528,2.4545,2.4566,2.4341,2.4341,2.4341,0,0,2.5127,2.5055,2.5051,2.4978,2.4926,2.4913,2.4796,2.4785,2.4774,2.4637,2.4632,2.4577,2.4504,2.4522,2.4526,2.448,2.4586,2.4532,2.4547,2.4544,2.4557,2.4578,2.4597,2.4347,2.4346,2.4345,0,0,2.5262,2.5206,2.5222,2.5174,2.5099,2.5028,2.5033,2.4935,2.4894,2.4888,2.4785,2.4771,2.4721,2.4674,2.4644,2.4768,2.469,2.476,2.4862,2.488,2.4898,2.4913,2.4959,2.4976,2.4768,2.4769,2.4769,0,2.5368,2.5343,2.524,2.5237,2.5209,2.5087,2.5104,2.5062,2.4979,2.4963,2.4913,2.4851,2.4793,2.4799,2.4831,2.481,2.4812,2.477,2.4904,2.4918,2.4931,2.4973,2.499,2.4778,2.4777,2.4776,2.4775,0,2.5479,2.5463,2.5486,2.5412,2.5386,2.5393,2.5293,2.528,2.5214,2.5149,2.5147,2.5074,2.5024,2.5021,2.4955,2.5019,2.4993,2.4926,2.4837,2.4963,2.5001,2.5016,2.4791,2.4787,2.4785,2.4782,0,0,2.5707,2.558,2.559,2.5556,2.5466,2.5452,2.5456,2.5409,2.5401,2.5349,2.535,2.5313,2.5251,2.5218,2.5146,2.5162,2.5268,2.5092,2.5089,2.5128,2.5337,2.5388,2.5409,2.5217,2.5219,2.5221,2.5343,0,2.5827,2.5825,2.5735,2.5759,2.5745,2.5631,2.5634,2.558,2.5521,2.5501,2.5435,2.5412,2.5332,2.5311,2.5322,2.5253,2.5308,2.5243,2.5216,2.5217,2.5238,2.5428,2.5481,2.5599,2.5357,2.5359,2.5361,0,2.5964,2.5924,2.5947,2.586,2.5851,2.5855,2.5807,2.5789,2.5727,2.5683,2.5649,2.5569,2.5567,2.5486,2.5483,2.5441,2.5425,2.539,2.5392,2.5385,2.5296,2.5427,2.5634,2.5653,2.5383,2.5381,2.538,0,2.6131,2.6082,2.609,2.6065,2.5963,2.5969,2.5927,2.5861,2.5841,2.5799,2.5785,2.5744,2.5721,2.5691,2.5603,2.5552,2.5612,2.5522,2.5576,2.5579,2.5592,2.5593,2.5801,2.5583,2.5583,2.5583,2.5582,0,2.6273,2.6292,2.6164,2.6169,2.6188,2.6086,2.6107,2.6054,2.5998,2.5991,2.589,2.5887,2.5771,2.5754,2.5686,2.5695,2.5685,2.5651,2.5632,2.566,2.5664,2.5647,2.5637,2.5587,2.5586,2.5585,2.5585,0,2.6461,2.6376,2.6378,2.6283,2.626,2.6279,2.6198,2.6199,2.6136,2.613,2.6123,2.6024,2.6,2.591,2.5863,2.5817,2.5849,2.5813,2.5871,2.5859,2.5918,2.5915,2.6123,2.6146,2.5914,2.5916,2.5918,0,2.6557,2.6569,2.6478,2.6467,2.643,2.6414,2.6393,2.6295,2.6277,2.621,2.6221,2.6189,2.6159,2.6126,2.605,2.6015,2.5978,2.6054,2.5971,2.6,2.598,2.5981,2.5983,2.6071,2.6074,2.6076,2.6078,0,2.6737,2.6695,2.667,2.6632,2.6611,2.6575,2.6533,2.653,2.6421,2.6407,2.6382,2.6359,2.6314,2.6285,2.6239,2.6195,2.612,2.6106,2.6116,2.6144,2.6178,2.6162,2.5919,2.61,2.6098,2.6097,2.6095,2.6095,2.6881,2.6889,2.6827,2.6803,2.6762,2.6727,2.6725,2.6664,2.6642,2.6598,2.6542,2.6526,2.6467,2.6397,2.636,2.6347,2.6304,2.632,2.6323,2.6329,2.6343,2.6181,2.6338,2.6337,2.6336,2.6336,2.6335,0,2.7057,2.7013,2.6992,2.6939,2.6922,2.6854,2.6806,2.6796,2.6783,2.6735,2.6709,2.6683,2.6655,2.658,2.6545,2.6549,2.6514,2.6543,2.6542,2.6534,2.6382,2.6377,2.6573,2.6573,2.6573,2.6573,2.6573,2.6573,2.7146,2.7156,2.7108,2.7098,2.7053,2.7038,2.7017,2.6985,2.6946,2.6923,2.69,2.6852,2.6793,2.6754,2.6727,2.6705,2.6698,2.6739,2.6707,2.6567,2.6544,2.6522,2.6516,2.6738,2.6739,2.6859,2.686,2.6861]}]]